Regional Weather Roundup
Issued by NWS Newport/Morehead, NC

Current Version | Previous Version | Text Only | Print | Product List | Glossary On
Versions: 1 2 3 4 5 6 7 8 9 10 11 12 13 14 15 16 17 18 19 20 21 22 23 24 25 26 27 28 29 30 31 32 33 34 35 36 37 38 39 40 41 42 43 44 45 46 47 48 49 50
000 ASUS42 KMHX 241325 RWRMHX WEATHER ROUNDUP FOR EASTERN NORTH CAROLINA NATIONAL WEATHER SERVICE NEWPORT/MOREHEAD CITY NC 900 AM EDT MON APR 24 2017 NOTE: "FAIR" INDICATES FEW OR NO CLOUDS BELOW 12,000 FEET WITH NO SIGNIFICANT WEATHER AND/OR OBSTRUCTIONS TO VISIBILITY NCZ015>017-031-032-045>047-102-103-241400- NORTH COAST CITY SKY/WX TMP DP RH WIND PRES REMARKS EDENTON CLOUDY 65 63 92 CALM 29.90F ELIZABETH CITY LGT RAIN 63 63 100 N7 29.91F FOG KITTY HAWK CLOUDY 65 65 100 CALM 29.90R FOG MANTEO CLOUDY 66 65 95 SE6 29.90S $$ NCZ045>047-081-094-103-104-241400- CENTRAL COAST CITY SKY/WX TMP DP RH WIND PRES REMARKS FRISCO CLOUDY 69 67 93 NE5 29.88S FOG $$ NCZ095-097-098-100-101-241400- SOUTHERN COAST CITY SKY/WX TMP DP RH WIND PRES REMARKS BEAUFORT CLOUDY 70 68 93 SE9 29.84S CEDAR ISLAND NOT AVBL JACKSONVILLE LGT RAIN 64 64 100 NE10 29.82F PINEY ISLAND CLOUDY N/A N/A N/A E7 29.84F WILMINGTON CLOUDY 66 65 96 E14G22 29.80S $$ NCZ011>013-027>030-043-044-078>080-089-090>093-098-241400- COASTAL PLAIN CITY SKY/WX TMP DP RH WIND PRES REMARKS AHOSKIE HVY RAIN 57 57 98 NE7 29.92F CLINTON RAIN 59 59 100 NE3 29.83S ELIZABETHTOWN HVY RAIN 60 60 100 CALM 29.82R GOLDSBORO LGT RAIN 59 59 100 NE6 29.85R FOG GREENVILLE CLOUDY 61 61 100 NE6 29.89F HAVELOCK NOT AVBL KENANSVILLE RAIN 61 59 94 E3 29.83F FOG KINSTON RAIN 61 61 100 CALM 29.86F NEW BERN CLOUDY 65 65 100 NE7 29.86S RICHLANDS LGT RAIN 62 61 96 NE10 29.83F ROCKY MOUNT RAIN 57 57 100 NE7 29.89S FOG WASHINGTON CLOUDY 63 62 97 NE7 29.87S WHITEVILLE LGT RAIN 61 60 97 N6 29.79R $$ AMZ130-135-150-152-154-156-158-170-250-252-270-ANZ085-086-088-633-658-670-241400- MARINE OBSERVATIONS STATION/POSITION TIME TEMP WIND PRES WAVE SWELL AIR SEA DIR/SP/G HT/PER HT/PER (UTC) (F) (DEG/KT/KT) (MB) (FT/S) (FT/S) CHESAPEAKE LIGHT NOT AVBL 64 E VA BEACH 1250 61 53 80/ 8/ 10 1014.3 5/ 8 5/ 8 DUCK 1300 61 62 110/ 4/ 5 1012.2 2 E DUCK 1300 61 N/A 5/ 8 2/11 OREGON INLET 1300 64 58 70/ 6/ 8 1012.2 13E OREGON INLT 1248 56 N/A 6/11 5/11 HATTERAS CG 1300 69 67 60/ 9/ 11 1011.4 DIAMOND BUOY 1250 77 78 150/ 19/ 23 1011.2 7/11 5/11 CAPE LOOKOUT 1300 70 160/ 23/ 31 1010.3 BEAUFORT LAB 1300 69 65 160/ 9/ 12 1009.6 30 SE NEW RVR IN 1308 70 150/ 19/ 25 1009.9 30 SE NEW RVR IN 1243 71 N/A 7/ 6 2/12 27 SE WRIGHTSVLE 1208 69 72 190/ 19/ 25 1008.5 5 SE WRIGHTSVLE 1308 69 69 150/ 16/ 29 1009.2 225 S CAPE HAT 1250 72 75 120/ 25/ 29 1009.5 7/ 6 2/11 41 SE CHARLESTON 1250 74 74 150/ 17/ 23 1005.3 7/ 8 2/11 $$

USA.gov is the U.S. government's official web portal to all federal, state and local government web resources and services.